When you browse on this site, cookies collect data to enhance your experience and personalize the content and advertising you see.
Visit our Privacy Policy to learn more. By continuing to use the site, you agree to this use of cookies and data.
  • In United Kingdom
  • List of Countries
  • For 7 days
  • Water Temperature
  • Weather Map
  • Weather Widgets
  • user-avatar
    Login

    Hourly Weather Warburg

    Today, 21 August, Wednesday

    Time Temperature Precipitation Wind Pressure Humidity
    00:00 +13°C° 0 mm 1 mps 749 mmHg 79%
    01:00 +12°C° 0 mm 1 mps 749 mmHg 84%
    02:00 +12°C° 0 mm 1 mps 749 mmHg 85%
    03:00 +12°C° 0 mm 1 mps 749 mmHg 86%
    04:00 +12°C° 0 mm 1 mps 749 mmHg 87%
    05:00 +12°C° 0 mm 1 mps 749 mmHg 84%
    06:00 +12°C° 0 mm 0 mps 750 mmHg 81%
    07:00 +13°C° 0 mm 0 mps 750 mmHg 78%
    08:00 +16°C° 0 mm 1 mps 750 mmHg 69%
    09:00 +19°C° 0 mm 1 mps 751 mmHg 61%
    10:00 +20°C° 0 mm 1 mps 751 mmHg 53%
    11:00 +21°C° 0 mm 1 mps 751 mmHg 49%
    12:00 +22°C° 0 mm 1 mps 751 mmHg 45%
    13:00 +23°C° 0 mm 1 mps 750 mmHg 41%
    14:00 +23°C° 0 mm 1 mps 750 mmHg 40%
    15:00 +23°C° 0 mm 1 mps 750 mmHg 40%
    16:00 +23°C° 0 mm 1 mps 750 mmHg 40%
    17:00 +22°C° 0 mm 1 mps 750 mmHg 46%
    18:00 +20°C° 0 mm 1 mps 749 mmHg 52%
    19:00 +19°C° 0 mm 1 mps 749 mmHg 58%
    20:00 +16°C° 0 mm 1 mps 750 mmHg 60%
    21:00 +15°C° 0 mm 1 mps 750 mmHg 62%
    22:00 +14°C° 0 mm 1 mps 750 mmHg 64%
    23:00 +14°C° 0 mm 1 mps 750 mmHg 67%

    Tomorrow, 22 August, Thursday

    Time Temperature Precipitation Wind Pressure Humidity
    00:00 +13°C° 0 mm 1 mps 750 mmHg 69%
    01:00 +13°C° 0 mm 1 mps 750 mmHg 72%
    02:00 +13°C° 0 mm 1 mps 749 mmHg 74%
    03:00 +12°C° 0 mm 1 mps 749 mmHg 76%
    04:00 +12°C° 0 mm 1 mps 749 mmHg 78%
    05:00 +13°C° 0 mm 1 mps 749 mmHg 76%
    06:00 +14°C° 0 mm 1 mps 749 mmHg 73%
    07:00 +15°C° 0 mm 1 mps 750 mmHg 71%
    08:00 +17°C° 0 mm 2 mps 750 mmHg 65%
    09:00 +19°C° 0 mm 2 mps 750 mmHg 58%
    10:00 +23°C° 0 mm 2 mps 750 mmHg 52%
    11:00 +24°C° 0 mm 2 mps 749 mmHg 48%
    12:00 +25°C° 0 mm 2 mps 749 mmHg 44%
    13:00 +26°C° 0 mm 2 mps 749 mmHg 40%
    14:00 +26°C° 0 mm 1 mps 749 mmHg 39%
    15:00 +26°C° 0 mm 1 mps 748 mmHg 38%
    16:00 +27°C° 0 mm 1 mps 748 mmHg 37%
    17:00 +25°C° 0 mm 1 mps 748 mmHg 44%
    18:00 +23°C° 0 mm 1 mps 748 mmHg 50%
    19:00 +21°C° 0 mm 1 mps 748 mmHg 57%
    20:00 +20°C° 0 mm 1 mps 748 mmHg 60%
    21:00 +17°C° 0 mm 0 mps 748 mmHg 63%
    22:00 +15°C° 0 mm 0 mps 749 mmHg 67%
    23:00 +15°C° 0 mm 0 mps 749 mmHg 69%

    Day after tomorrow, 23 August, Friday

    Time Temperature Precipitation Wind Pressure Humidity
    00:00 +14°C° 0 mm 0 mps 749 mmHg 70%
    01:00 +14°C° 0 mm 0 mps 749 mmHg 72%
    02:00 +13°C° 0 mm 0 mps 748 mmHg 72%
    03:00 +13°C° 0 mm 0 mps 748 mmHg 73%
    04:00 +13°C° 0 mm 0 mps 748 mmHg 73%
    05:00 +14°C° 0 mm 0 mps 748 mmHg 71%
    06:00 +15°C° 0 mm 0 mps 748 mmHg 68%
    07:00 +16°C° 0 mm 0 mps 749 mmHg 66%
    08:00 +20°C° 0 mm 1 mps 749 mmHg 59%
    09:00 +22°C° 0 mm 1 mps 749 mmHg 53%
    10:00 +25°C° 0 mm 1 mps 749 mmHg 47%
    11:00 +26°C° 0 mm 1 mps 749 mmHg 43%
    12:00 +27°C° 0 mm 1 mps 749 mmHg 40%
    13:00 +28°C° 0 mm 1 mps 748 mmHg 37%
    14:00 +28°C° 0 mm 2 mps 748 mmHg 37%
    15:00 +28°C° 0 mm 2 mps 748 mmHg 37%
    16:00 +28°C° 0 mm 2 mps 747 mmHg 37%
    17:00 +26°C° 0 mm 2 mps 747 mmHg 45%
    18:00 +24°C° 0 mm 2 mps 747 mmHg 52%
    19:00 +21°C° 0 mm 2 mps 747 mmHg 59%
    20:00 +20°C° 0 mm 2 mps 747 mmHg 63%
    21:00 +19°C° 0 mm 1 mps 747 mmHg 67%
    22:00 +18°C° 0 mm 1 mps 747 mmHg 71%
    23:00 +18°C° 0 mm 1 mps 747 mmHg 71%

    24 August, Saturday

    Time Temperature Precipitation Wind Pressure Humidity
    00:00 +16°C° 0 mm 1 mps 747 mmHg 71%
    01:00 +16°C° 0 mm 1 mps 747 mmHg 72%
    02:00 +15°C° 0 mm 1 mps 747 mmHg 74%
    03:00 +15°C° 0 mm 1 mps 746 mmHg 76%
    04:00 +14°C° 0 mm 1 mps 746 mmHg 79%
    05:00 +15°C° 0 mm 1 mps 746 mmHg 77%
    06:00 +16°C° 0 mm 1 mps 746 mmHg 75%
    07:00 +18°C° 0 mm 1 mps 746 mmHg 74%
    08:00 +20°C° 0 mm 1 mps 746 mmHg 69%
    09:00 +21°C° 0 mm 2 mps 746 mmHg 63%
    10:00 +24°C° 0 mm 3 mps 746 mmHg 58%
    11:00 +25°C° 0 mm 2 mps 746 mmHg 54%
    12:00 +27°C° 0 mm 2 mps 746 mmHg 49%
    13:00 +28°C° 0 mm 2 mps 746 mmHg 44%
    14:00 +28°C° 0 mm 2 mps 745 mmHg 44%
    15:00 +28°C° 0 mm 2 mps 745 mmHg 43%
    16:00 +28°C° 0 mm 2 mps 745 mmHg 42%
    17:00 +27°C° 0 mm 2 mps 744 mmHg 49%
    18:00 +25°C° 0 mm 2 mps 744 mmHg 57%
    19:00 +23°C° 0 mm 2 mps 744 mmHg 64%
    20:00 +21°C° 0 mm 2 mps 744 mmHg 67%
    21:00 +21°C° 0 mm 1 mps 744 mmHg 70%
    22:00 +19°C° 0 mm 1 mps 744 mmHg 73%
    23:00 +19°C° 0 mm 1 mps 744 mmHg 74%

    25 August, Sunday

    Time Temperature Precipitation Wind Pressure Humidity
    00:00 +19°C° 0 mm 1 mps 744 mmHg 75%
    01:00 +18°C° 0 mm 1 mps 744 mmHg 76%
    02:00 +18°C° 0 mm 1 mps 744 mmHg 78%
    03:00 +18°C° 0 mm 1 mps 744 mmHg 79%
    04:00 +16°C° 0 mm 1 mps 743 mmHg 81%
    05:00 +18°C° 0 mm 1 mps 744 mmHg 79%
    06:00 +19°C° 0 mm 1 mps 744 mmHg 77%
    07:00 +20°C° 0 mm 1 mps 744 mmHg 76%
    08:00 +22°C° 0 mm 1 mps 744 mmHg 69%
    09:00 +24°C° 0 mm 2 mps 744 mmHg 63%
    10:00 +27°C° 0 mm 2 mps 744 mmHg 57%
    11:00 +28°C° 0 mm 2 mps 744 mmHg 53%
    12:00 +29°C° 0 mm 2 mps 744 mmHg 49%
    13:00 +30°C° 0 mm 1 mps 743 mmHg 45%
    14:00 +30°C° 0.1 mm 1 mps 743 mmHg 46%
    15:00 +30°C° 0.1 mm 1 mps 743 mmHg 46%
    16:00 +30°C° 0.1 mm 1 mps 743 mmHg 47%
    17:00 +28°C° 0 mm 1 mps 743 mmHg 54%
    18:00 +27°C° 0 mm 1 mps 743 mmHg 60%
    19:00 +25°C° 0 mm 1 mps 743 mmHg 67%
    20:00 +24°C° 0 mm 1 mps 743 mmHg 70%
    21:00 +23°C° 0 mm 1 mps 743 mmHg 73%
    22:00 +20°C° 0 mm 0 mps 743 mmHg 76%
    23:00 +21°C° 0 mm 1 mps 743 mmHg 77%

    26 August, Monday

    Time Temperature Precipitation Wind Pressure Humidity
    00:00 +21°C° 0 mm 1 mps 743 mmHg 79%
    01:00 +20°C° 0 mm 1 mps 743 mmHg 80%
    02:00 +20°C° 0 mm 1 mps 743 mmHg 81%
    03:00 +20°C° 0 mm 1 mps 743 mmHg 82%
    04:00 +19°C° 0 mm 1 mps 743 mmHg 83%
    05:00 +20°C° 0 mm 1 mps 743 mmHg 80%
    06:00 +21°C° 0 mm 1 mps 743 mmHg 78%
    07:00 +22°C° 0 mm 1 mps 743 mmHg 75%
    08:00 +24°C° 0 mm 1 mps 744 mmHg 66%
    09:00 +26°C° 0 mm 2 mps 744 mmHg 58%
    10:00 +29°C° 0 mm 2 mps 744 mmHg 49%
    11:00 +30°C° 0 mm 2 mps 744 mmHg 45%
    12:00 +31°C° 0 mm 2 mps 744 mmHg 41%
    13:00 +32°C° 0 mm 2 mps 744 mmHg 36%
    14:00 +32°C° 0 mm 2 mps 744 mmHg 37%
    15:00 +32°C° 0 mm 2 mps 744 mmHg 37%
    16:00 +32°C° 0 mm 2 mps 744 mmHg 37%
    17:00 +30°C° 0 mm 2 mps 744 mmHg 44%
    18:00 +28°C° 0 mm 2 mps 744 mmHg 50%
    19:00 +26°C° 0 mm 2 mps 744 mmHg 57%
    20:00 +24°C° 1.3 mm 1 mps 744 mmHg 66%
    21:00 +22°C° 1.3 mm 1 mps 744 mmHg 76%
    22:00 +20°C° 1.3 mm 1 mps 745 mmHg 86%
    23:00 +19°C° 0.2 mm 1 mps 745 mmHg 86%
    Show more